Flag for Portugal Weather past 2 weeks in Faro, Portugal

Now
77 °F

Clear.


Feels Like: 78 °F
Forecast: 68 / 88 °F
Wind: 6 mph from North

Location: Faro / Aeroporto

Current Time: Jul 7, 2015 at 4:42:42 AM

Latest Report: Jul 7, 2015 at 3:30 AM


Visibility: 10 mi

Pressure: 29.98 "Hg

Humidity: 34%

Dew point: 46 °F

Location of FaroLocation

Historic Weather in Faro — Graph

°F

Faro temperature yesterday

Maximum temperature yesterday: 84 °F (at 1:00 PM)
Minimum temperature yesterday: 72 °F (at 4:00 AM)
Average temperature yesterday: 79 °F

Past Weeks' High & Low Weather Summary

 TemperatureHumidityPressure
High95 °F (Jun 27, 10:00 AM)94% (Jun 29, 11:30 PM)30.15 "Hg (Jun 29, 11:30 PM)
Low61 °F (Jun 24, 6:00 AM)18% (Jun 27, 10:00 AM)29.95 "Hg (Jun 30, 3:30 AM)
Average75 °F59%30.03 "Hg
* Reported Jun 22 3:00 AM — Jul 7 3:30 AM, Faro, Weather by CustomWeather, © 2015

Note: Actual official high and low records may vary slightly from our data, if they occured in-between our weather recording intervals... More about our weather records

Advertising

Faro weather history for previous 24 hours

 ConditionsComfort  
Time TempWeatherWind HumidityBarometerVisibility
3:30 AM
Tue, Jul 7
77 °FClear.6 mph34%29.98 "Hg10 mi
3:00 AM77 °FPassing clouds.3 mph34%29.98 "HgN/A
2:30 AM81 °FClear.5 mph28%29.98 "Hg10 mi
2:00 AM81 °FClear.6 mph30%29.98 "Hg10 mi
1:30 AM77 °FClear.No wind54%29.98 "Hg10 mi
1:00 AM79 °FClear.3 mph45%29.98 "Hg10 mi
12:30 AM79 °FClear.3 mph45%29.98 "Hg10 mi
12:00 AM81 °FClear.2 mph45%29.98 "Hg10 mi
11:30 PM
Mon, Jul 6
81 °FClear.2 mph51%29.98 "Hg10 mi
10:30 PM77 °FClear.5 mph69%29.98 "Hg10 mi
10:00 PM77 °FClear.3 mph65%29.98 "Hg10 mi
9:30 PM77 °FSunny.6 mph65%29.95 "Hg10 mi
9:00 PM79 °FSunny.8 mph58%29.98 "Hg10 mi
8:30 PM82 °FSunny.9 mph45%29.95 "Hg10 mi
8:00 PM82 °FSunny.8 mph45%29.98 "Hg10 mi
7:30 PM82 °FSunny.9 mph45%29.98 "Hg10 mi
7:00 PM84 °FSunny.10 mph40%29.95 "Hg10 mi
6:30 PM81 °FSunny.9 mph62%29.98 "Hg10 mi
6:00 PM82 °FSunny.10 mph58%29.98 "Hg10 mi
5:30 PM81 °FSunny.10 mph62%29.98 "Hg10 mi
5:00 PM82 °FPassing clouds.8 mph62%29.98 "HgN/A
4:30 PM81 °FPassing clouds.8 mph66%29.98 "HgN/A
4:00 PM81 °FPassing clouds.7 mph66%29.98 "HgN/A
3:30 PM81 °FPassing clouds.8 mph66%30.01 "HgN/A
3:00 PM82 °FPassing clouds.8 mph62%30.01 "HgN/A
2:30 PM82 °FPassing clouds.8 mph62%30.01 "HgN/A
2:00 PM84 °FPassing clouds.8 mph58%30.01 "HgN/A
1:30 PM82 °FSunny.9 mph62%30.01 "Hg10 mi
1:00 PM84 °FSunny.10 mph58%30.01 "Hg10 mi
12:30 PM82 °FSunny.9 mph58%30.01 "Hg10 mi
12:00 PM82 °FPassing clouds.6 mph58%30.01 "HgN/A
11:30 AM79 °FPassing clouds.6 mph61%30.01 "HgN/A
11:00 AM79 °FSunny.6 mph61%30.01 "Hg10 mi
10:30 AM77 °FPassing clouds.5 mph65%30.01 "HgN/A
10:00 AM77 °FSunny.6 mph61%30.01 "Hg10 mi
9:30 AM77 °FSunny.6 mph57%30.01 "Hg10 mi
9:00 AM77 °FPassing clouds.3 mph57%30.01 "HgN/A
8:30 AM77 °FSunny.5 mph61%30.01 "Hg10 mi
8:00 AM75 °FSunny.6 mph65%29.98 "Hg10 mi
7:30 AM75 °FSunny.2 mph57%29.98 "Hg10 mi
7:00 AM73 °FPassing clouds.3 mph53%29.98 "HgN/A
6:30 AM75 °FClear.5 mph50%29.98 "Hg10 mi
6:00 AM72 °FClear.No wind61%29.95 "Hg10 mi
5:30 AM72 °FClear.2 mph61%29.95 "Hg10 mi
5:00 AM75 °FClear.5 mph54%29.98 "Hg10 mi
4:30 AM75 °FClear.3 mph54%29.98 "Hg10 mi
4:00 AM72 °FClear.3 mph69%29.98 "Hg10 mi
Weather by CustomWeather, © 2015

See weather overviewHow to use our weather pages